This demonstration page uses our WeatherBlox Daily Observations layout. Learn more.

Left ArrowRight Arrow

Hourly Observations for October 27, 2021

Temp ( °F °C ) Dew Point ( °F °C ) Humidity (%) Winds ( mph kmh ) Pressure ( in mb ) Visibility ( mi km ) Precip ( " mm )
12:18 am 00:18 Cloudy with Light Rain 61 16 55 13 83 83 SE 39 63 29.35 994 10 16 0.02 0.51
12:42 am 00:42 Mostly Cloudy 61 16 55 13 83 83 W 18 30 29.50 999 10 16 0.02 0.51
12:56 am 00:56 Mostly Cloudy 61 16.1 55 12.8 81 81 SSW 14 22 29.52 1000 10 16 0.02 0.51
1:04 am 01:04 Mostly Cloudy 61 16 55 13 83 83 S 7 11 29.49 999 10 16 N/A
1:22 am 01:22 Cloudy 59 15 55 13 88 88 N N/A 29.50 999 10 16 N/A
1:43 am 01:43 Mostly Clear 57 14 54 12 88 88 WSW 3 6 29.49 999 10 16 N/A
1:56 am 01:56 Mostly Clear 58 14.4 54 12.2 87 87 W 5 7 29.51 999 10 16 N/A
2:09 am 02:09 Mostly Cloudy 55 13 54 12 94 94 NE 3 6 29.50 999 10 16 N/A
2:56 am 02:56 Cloudy 53 11.7 51 10.6 93 93 NNW 10 17 29.51 999 10 16 N/A
3:25 am 03:25 Cloudy 52 11 50 10 94 94 NNW 14 22 29.54 1000 10 16 N/A
3:34 am 03:34 Cloudy 52 11 50 10 94 94 NW 16 26 29.55 1001 10 16 N/A
3:56 am 03:56 Cloudy 50 10 48 8.9 93 93 NNW 18 30 29.53 1000 10 16 N/A
4:56 am 04:56 Cloudy 48 8.9 46 7.8 93 93 NW 21 33 29.56 1001 10 16 N/A
5:56 am 05:56 Cloudy with Light Rain 46 7.8 44 6.7 93 93 NNW 20 31 29.57 1001 7 11 0.00 0.00
6:56 am 06:56 Cloudy with Light Rain 45 7.2 44 6.7 97 97 NNW 17 28 29.60 1002 3 5 0.01 0.25
7:23 am 07:23 Cloudy with Nearby Thunderstorms 45 7 45 7 100 100 NNW 18 30 29.65 1004 3 5 0.01 0.25
7:38 am 07:38 Cloudy with Light Rain 45 7 43 6 93 93 NW 18 30 29.66 1004 3 5 0.01 0.25
7:47 am 07:47 Cloudy with Light Rain 45 7 43 6 93 93 NNW 20 31 29.67 1005 3 4 N/A
7:56 am 07:56 Cloudy with Light Rain 44 6.7 43 6.1 96 96 NW 17 28 29.63 1003 3 5 0.01 0.25
8:56 am 08:56 Cloudy with Light Rain 45 7.2 43 6.1 93 93 NNW 22 35 29.64 1004 9 14 0.03 0.76
9:56 am 09:56 Cloudy with Light Rain 45 7.2 43 6.1 93 93 NNW 24 39 29.65 1004 9 14 0.03 0.76
10:56 am 10:56 Cloudy with Light Rain 45 7.2 43 6.1 93 93 NNW 28 44 29.67 1005 9 14 0.08 2.03
11:03 am 11:03 Cloudy with Light Rain 45 7 43 6 93 93 N 25 41 29.70 1006 8 13 0.01 0.25
11:56 am 11:56 Cloudy with Light Rain 46 7.8 43 6.1 89 89 N 26 43 29.67 1005 10 16 0.06 1.52
12:35 pm 12:35 Cloudy with Light Rain 46 8 43 6 87 87 N 20 31 29.71 1006 10 16 N/A
12:56 pm 12:56 Cloudy 47 8.3 43 6.1 86 86 N 23 37 29.67 1005 10 16 0.01 0.25
1:56 pm 13:56 Cloudy 47 8.3 43 6.1 86 86 NNW 22 35 29.68 1005 10 16 0.00 0.00
2:07 pm 14:07 Cloudy with Light Rain 46 8 43 6 87 87 NNW 24 39 29.71 1006 10 16 0.00 0.00
2:56 pm 14:56 Cloudy 48 8.9 43 6.1 83 83 NNW 22 35 29.68 1005 10 16 0.00 0.00
3:56 pm 15:56 Cloudy 50 10 43 6.1 77 77 NNW 20 31 29.68 1005 10 16 N/A
4:56 pm 16:56 Cloudy 51 10.6 42 5.6 71 71 NNW 23 37 29.69 1005 10 16 N/A
5:56 pm 17:56 Cloudy 52 11.1 41 5 66 66 NNW 21 33 29.72 1006 10 16 N/A
6:56 pm 18:56 Cloudy 51 10.6 40 4.4 66 66 NNW 18 30 29.75 1007 10 16 N/A
7:56 pm 19:56 Partly Cloudy 49 9.4 41 5 74 74 NNW 10 17 29.78 1008 10 16 N/A
8:56 pm 20:56 Clear 49 9.4 40 4.4 71 71 NNW 13 20 29.78 1008 10 16 N/A
9:56 pm 21:56 Mostly Cloudy 48 8.9 39 3.9 71 71 NNW 8 13 29.80 1009 10 16 N/A
10:56 pm 22:56 Clear 48 8.9 39 3.9 71 71 NNW 14 22 29.81 1010 10 16 N/A
11:56 pm 23:56 Clear 46 7.8 39 3.9 77 77 NW 12 19 29.81 1010 10 16 N/A

Powered by AerisWeather